Location: Antioch Baptist Church
(32.6696°N, 85.7327°W)
Time: 21:20:07
(UTC+00:00)

Cosmos 1455 - Pass Details

Date: 14 July 2020
Orbit: 500 x 522 km, 82.5° (Epoch: 13 August)

Event Time Altitude Azimuth Distance (km) Brightness Sun altitude
Rises 01:53:04 0° 347° (NNW) 2,650 6.6 -11.8°
Reaches altitude 10° 01:55:14 10° 343° (NNW) 1,760 5.7 -12.2°
Maximum altitude 01:59:00 52° 267° (W) 651 3.0 -12.8°
Drops below altitude 10° 02:02:44 10° 190° (S) 1,748 4.6 -13.5°
Enters shadow 02:03:52 - 187° (S) 2,205 5.1 -13.6°
